Date String (YYYY-MM-DD hh:mm:ss) UTC,Instrument flags,Ambient pressure (hPa),Sample flow (lpm),Bypass flow (lpm),Sample temperature (°C),Ambient temperature (°C),ASC tube jacket temperature (°C),LED temperature (°C),Box temperature (°C),Sample RH (%),Span deviation,Mass concentration (μg/m³),Mass concentration (μg/m³),Mass concentration (μg/m³)
DateTimeUTC,F1_M11,P_M11,Q1_M11,Q2_M11,T1_M11,T2_M11,T3_M11,T4_M11,T5_M11,U1_M11,ZSPAN_M11,X0_M11,X2_M11,X1_M11
2023-01-13 16:00:00,,0831.7,5.00,0.00,22.6,21.3,00.0,31.5,24.3,10.8,0000.0,0004.88,0002.39,0002.10
2023-01-13 16:01:00,,0831.8,4.99,0.00,22.6,21.3,00.0,31.5,24.4,10.8,0000.0,0005.00,0002.37,0002.06
2023-01-13 16:02:00,,0831.8,4.99,0.00,22.6,21.3,00.0,31.5,24.4,11.5,0000.0,0005.06,0002.35,0002.02
2023-01-13 16:03:00,,0831.8,5.00,0.00,22.6,21.2,00.0,31.5,24.3,11.7,0000.0,0005.17,0002.36,0002.02
2023-01-13 16:04:00,,0831.8,5.00,0.00,22.6,21.1,00.0,31.5,24.3,11.8,0000.0,0005.37,0002.34,0002.00
2023-01-13 16:05:00,,0831.7,4.99,0.00,22.6,21.0,00.0,31.5,24.3,10.7,0000.0,0005.33,0002.31,0001.97
2023-01-13 16:06:00,,0831.7,5.00,0.00,22.5,21.0,00.0,31.5,24.3,10.9,0000.0,0005.16,0002.23,0001.93
2023-01-13 16:07:00,,0831.7,5.00,0.00,22.5,21.1,00.0,31.4,24.3,10.7,0000.0,0004.96,0002.18,0001.89
2023-01-13 16:08:00,,0831.7,5.01,0.00,22.6,21.1,00.0,31.4,24.3,10.4,0000.0,0003.63,0002.15,0001.86
2023-01-13 16:09:00,,0831.7,4.99,0.00,22.5,21.2,00.0,31.4,24.3,10.5,0000.0,0003.57,0002.10,0001.81
2023-01-13 16:10:00,,0831.7,4.99,0.00,22.6,21.2,00.0,31.4,24.3,10.1,0000.0,0003.58,0002.07,0001.76
2023-01-13 16:11:00,,0831.7,4.98,0.00,22.6,21.3,00.0,31.4,24.3,10.6,0000.0,0003.38,0002.01,0001.72
2023-01-13 16:12:00,,0831.8,5.01,0.00,22.6,21.3,00.0,31.4,24.3,10.4,0000.0,0003.12,0001.93,0001.67
2023-01-13 16:13:00,,0831.7,5.01,0.00,22.6,21.3,00.0,31.4,24.3,10.2,0000.0,0002.92,0001.84,0001.62
2023-01-13 16:14:00,,0831.7,5.01,0.00,22.6,21.3,00.0,31.4,24.3,10.1,0000.0,0002.82,0001.78,0001.56
2023-01-13 16:15:00,,0831.7,5.01,0.00,22.6,21.3,00.0,31.4,24.3,10.2,0000.0,0002.43,0001.71,0001.47
2023-01-13 16:16:00,,0831.7,4.99,0.00,22.6,21.4,00.0,31.4,24.3,10.2,0000.0,0002.36,0001.64,0001.38
2023-01-13 16:17:00,,0831.7,4.99,0.00,22.6,21.4,00.0,31.4,24.4,10.2,0000.0,0002.26,0001.55,0001.30
2023-01-13 16:18:00,,0831.8,5.00,0.00,22.6,21.4,00.0,31.4,24.4,10.1,0000.0,0002.14,0001.47,0001.23
2023-01-13 16:19:00,,0831.7,5.01,0.00,22.6,21.4,00.0,31.4,24.4,10.1,0000.0,0001.97,0001.36,0001.16
2023-01-13 16:20:00,,0831.7,5.01,0.00,22.6,21.4,00.0,31.4,24.4,10.2,0000.0,0002.15,0001.27,0001.11
2023-01-13 16:21:00,,0831.7,5.00,0.00,22.6,21.4,00.0,31.5,24.4,10.2,0000.0,0002.41,0001.21,0001.07
2023-01-13 16:22:00,,0831.7,5.00,0.00,22.6,21.4,00.0,31.5,24.4,10.5,0000.0,0002.39,0001.17,0001.01
2023-01-13 16:23:00,,0831.8,4.99,0.00,22.7,21.4,00.0,31.5,24.4,10.5,0000.0,0002.38,0001.16,0000.98
2023-01-13 16:24:00,,0831.7,4.98,0.00,22.7,21.4,00.0,31.5,24.5,10.6,0000.0,0002.38,0001.16,0000.98
2023-01-13 16:25:00,,0831.7,5.01,0.00,22.7,21.5,00.0,31.5,24.5,10.5,0000.0,0002.40,0001.17,0000.97
2023-01-13 16:26:00,,0831.7,4.99,0.00,22.7,21.5,00.0,31.5,24.4,11.0,0000.0,0002.40,0001.15,0000.97
2023-01-13 16:27:00,,0831.7,5.00,0.00,22.7,21.5,00.0,31.5,24.4,12.5,0000.0,0002.40,0001.15,0000.98
2023-01-13 16:28:00,,0831.7,5.02,0.00,22.7,21.5,00.0,31.5,24.4,12.5,0000.0,0002.38,0001.14,0000.99
2023-01-13 16:29:00,,0831.7,5.02,0.00,22.7,21.5,00.0,31.5,24.4,12.7,0000.0,0002.37,0001.15,0001.00
2023-01-13 16:30:00,,0831.8,5.01,0.00,22.7,21.5,00.0,31.5,24.4,12.2,0000.0,0002.39,0001.16,0001.01
2023-01-13 16:31:00,,0831.7,5.00,0.00,22.7,21.5,00.0,31.5,24.4,11.8,0000.0,0002.41,0001.17,0001.01
2023-01-13 16:32:00,,0831.7,5.01,0.00,22.7,21.5,00.0,31.5,24.4,10.8,0000.0,0002.32,0001.20,0001.02
2023-01-13 16:33:00,,0831.7,5.01,0.00,22.7,21.5,00.0,31.5,24.4,10.4,0000.0,0001.77,0001.20,0001.01
2023-01-13 16:34:00,,0831.7,4.99,0.00,22.7,21.5,00.0,31.5,24.4,10.5,0000.0,0001.87,0001.21,0001.02
2023-01-13 16:35:00,,0831.7,5.00,0.00,22.7,21.5,00.0,31.6,24.5,10.5,0000.0,0001.93,0001.24,0001.04
2023-01-13 16:36:00,,0831.7,4.99,0.00,22.8,21.5,00.0,31.6,24.5,10.5,0000.0,0001.96,0001.24,0001.04
2023-01-13 16:37:00,,0831.7,5.01,0.00,22.8,21.6,00.0,31.6,24.5,10.8,0000.0,0001.93,0001.25,0001.05
2023-01-13 16:38:00,,0831.8,5.00,0.00,22.8,21.6,00.0,31.6,24.6,11.9,0000.0,0001.88,0001.25,0001.05
2023-01-13 16:39:00,,0831.7,5.00,0.00,22.8,21.6,00.0,31.6,24.5,13.2,0000.0,0001.89,0001.25,0001.06
2023-01-13 16:40:00,,0831.8,4.99,0.00,22.8,21.6,00.0,31.6,24.6,14.3,0000.0,0002.39,0001.26,0001.06
2023-01-13 16:41:00,,0831.8,5.01,0.00,22.8,21.6,00.0,31.6,24.6,14.7,0000.0,0002.91,0001.35,0001.13
2023-01-13 16:42:00,,0831.8,5.01,0.00,22.9,21.7,00.0,31.6,24.6,14.1,0000.0,0003.24,0001.60,0001.32
2023-01-13 16:43:00,,0831.8,5.01,0.00,22.9,21.7,00.0,31.6,24.7,13.8,0000.0,0003.60,0001.86,0001.54
2023-01-13 16:44:00,,0831.7,5.00,0.00,22.9,21.7,00.0,31.6,24.8,13.3,0000.0,0003.79,0002.02,0001.70
2023-01-13 16:45:00,,0831.7,4.99,0.00,22.9,21.7,00.0,31.6,24.7,12.9,0000.0,0004.38,0002.19,0001.84
2023-01-13 16:46:00,,0831.7,5.00,0.00,22.9,21.7,00.0,31.7,24.7,13.2,0000.0,0004.77,0002.33,0001.99
2023-01-13 16:47:00,,0831.7,4.99,0.00,22.9,21.7,00.0,31.7,24.7,13.8,0000.0,0004.99,0002.55,0002.19
2023-01-13 16:48:00,,0831.7,5.00,0.00,22.9,21.8,00.0,31.7,24.7,14.2,0000.0,0005.21,0002.75,0002.39
2023-01-13 16:49:00,,0831.7,5.01,0.00,22.9,21.8,00.0,31.7,24.7,14.5,0000.0,0005.47,0002.98,0002.59
2023-01-13 16:50:00,,0831.7,5.00,0.00,22.9,21.8,00.0,31.7,24.7,14.3,0000.0,0005.70,0003.15,0002.77
2023-01-13 16:51:00,,0831.7,5.00,0.00,23.0,21.8,00.0,31.7,24.7,13.9,0000.0,0005.33,0003.21,0002.89
2023-01-13 16:52:00,,0831.7,5.00,0.00,23.0,21.9,00.0,31.7,24.7,14.1,0000.0,0005.02,0003.22,0002.93
2023-01-13 16:53:00,,0831.7,5.00,0.00,23.0,21.9,00.0,31.7,24.8,15.1,0000.0,0004.97,0003.18,0002.89
2023-01-13 16:54:00,,0831.7,5.00,0.00,23.0,21.9,00.0,31.8,24.8,15.2,0000.0,0004.97,0003.13,0002.82
2023-01-13 16:55:00,,0831.7,5.00,0.00,23.0,21.9,00.0,31.8,24.9,14.8,0000.0,0005.61,0003.13,0002.78
2023-01-13 16:56:00,,0831.7,5.00,0.00,23.1,22.0,00.0,31.8,24.9,15.1,0000.0,0005.17,0003.08,0002.73
2023-01-13 16:57:00,,0831.8,5.01,0.00,23.1,22.0,00.0,31.8,24.9,14.4,0000.0,0004.75,0003.00,0002.67
2023-01-13 16:58:00,,0831.7,4.99,0.00,23.1,22.0,00.0,31.8,24.9,14.3,0000.0,0004.64,0002.85,0002.53
2023-01-13 16:59:00,,0831.7,4.99,0.00,23.1,22.0,00.0,31.8,24.9,14.6,0000.0,0004.44,0002.68,0002.38
